Satellite: NOAA-11
Catalog number: 19531
Epoch time: 10350.25925473
Element set: 325
Inclination: 098.7623 deg
RA of node: 076.1306 deg
Eccentricity: 0.0011263
Arg of perigee: 354.7207 deg
Mean anomaly: 005.3834 deg
Mean motion: 14.14898014 rev/day
Decay rate: -2.56e-06 rev/day^2
Epoch rev: 14688
Checksum: 290
Satellite: NOAA-12
Catalog number: 21263
Epoch time: 10350.33529507
Element set: 814
Inclination: 098.7601 deg
RA of node: 003.4265 deg
Eccentricity: 0.0012418
Arg of perigee: 002.6195 deg
Mean anomaly: 357.5042 deg
Mean motion: 14.25673635 rev/day
Decay rate: 4.4e-07 rev/day^2
Epoch rev: 1835
Checksum: 267
Satellite: MET-3/5
Catalog number: 21655
Epoch time: 10349.59365949
Element set: 0989
Inclination: 082.5552 deg
RA of node: 180.4721 deg
Eccentricity: 0.0012489
Arg of perigee: 256.1485 deg
Mean anomaly: 103.8296 deg
Mean motion: 13.17024322 rev/day
Decay rate: 5.1e-07 rev/day^2
Epoch rev: 92955
Checksum: 326
Satellite: MET-2/21
Catalog number: 22782
Epoch time: 10350.88287236
Element set: 966
Inclination: 082.5471 deg
RA of node: 107.5200 deg
Eccentricity: 0.0020958
Arg of perigee: 249.4060 deg
Mean anomaly: 110.4852 deg
Mean motion: 13.83652812 rev/day
Decay rate: 1.12e-06 rev/day^2
Epoch rev: 87334
Checksum: 290
Satellite: OKEAN-4
Catalog number: 23317
Epoch time: 10350.78417804
Element set: 421
Inclination: 082.5394 deg
RA of node: 183.4204 deg
Eccentricity: 0.0022428
Arg of perigee: 004.5022 deg
Mean anomaly: 355.6398 deg
Mean motion: 14.82909652 rev/day
Decay rate: 3.61e-06 rev/day^2
Epoch rev: 87351
Checksum: 288
Satellite: NOAA-14
Catalog number: 23455
Epoch time: 10350.37757619
Element set: 305
Inclination: 098.8668 deg
RA of node: 069.7366 deg
Eccentricity: 0.0010275
Arg of perigee: 079.3734 deg
Mean anomaly: 280.8587 deg
Mean motion: 14.13803856 rev/day
Decay rate: 4.5e-07 rev/day^2
Epoch rev: 82324
Checksum: 332
Satellite: NOAA-15
Catalog number: 25338
Epoch time: 10350.52165938
Element set: 634
Inclination: 098.6385 deg
RA of node: 334.3537 deg
Eccentricity: 0.0009768
Arg of perigee: 264.1414 deg
Mean anomaly: 095.8655 deg
Mean motion: 14.24871405 rev/day
Decay rate: -1.20e-06 rev/day^2
Epoch rev: 65471
Checksum: 318
Satellite: RESURS
Catalog number: 25394
Epoch time: 10349.60460391
Element set: 675
Inclination: 098.2993 deg
RA of node: 357.7543 deg
Eccentricity: 0.0002374
Arg of perigee: 058.6715 deg
Mean anomaly: 301.4690 deg
Mean motion: 14.24218688 rev/day
Decay rate: -.00000000 rev/day^2
Epoch rev: 64617
Checksum: 303
Satellite: FENGYUN1
Catalog number: 25730
Epoch time: 10350.47012989
Element set: 209
Inclination: 098.8031 deg
RA of node: 310.8466 deg
Eccentricity: 0.0020754
Arg of perigee: 104.7013 deg
Mean anomaly: 255.6459 deg
Mean motion: 14.08474453 rev/day
Decay rate: 7.32e-06 rev/day^2
Epoch rev: 59734
Checksum: 294
Satellite: OKEAN-0
Catalog number: 25860
Epoch time: 10349.77492886
Element set: 0178
Inclination: 097.8590 deg
RA of node: 316.5614 deg
Eccentricity: 0.0000832
Arg of perigee: 104.2641 deg
Mean anomaly: 255.8662 deg
Mean motion: 14.73692466 rev/day
Decay rate: 1.10e-06 rev/day^2
Epoch rev: 61364
Checksum: 314
Satellite: NOAA-16
Catalog number: 26536
Epoch time: 10350.54717423
Element set: 112
Inclination: 099.1601 deg
RA of node: 012.2183 deg
Eccentricity: 0.0010692
Arg of perigee: 182.1045 deg
Mean anomaly: 178.0087 deg
Mean motion: 14.12590669 rev/day
Decay rate: 2.86e-06 rev/day^2
Epoch rev: 52757
Checksum: 283
Satellite: NOAA-17
Catalog number: 27453
Epoch time: 10350.51957994
Element set: 104
Inclination: 098.4073 deg
RA of node: 033.3866 deg
Eccentricity: 0.0011172
Arg of perigee: 328.6243 deg
Mean anomaly: 031.4278 deg
Mean motion: 14.24219161 rev/day
Decay rate: 1.68e-06 rev/day^2
Epoch rev: 44065
Checksum: 292
Satellite: NOAA-18
Catalog number: 28654
Epoch time: 10350.49134474
Element set: 592
Inclination: 098.9736 deg
RA of node: 296.4242 deg
Eccentricity: 0.0013599
Arg of perigee: 259.5344 deg
Mean anomaly: 100.4302 deg
Mean motion: 14.11418321 rev/day
Decay rate: 2.86e-06 rev/day^2
Epoch rev: 28715
Checksum: 310
Satellite: NOAA-19
Catalog number: 33591
Epoch time: 10350.51926593
Element set: 784
Inclination: 098.8093 deg
RA of node: 288.9266 deg
Eccentricity: 0.0014689
Arg of perigee: 131.1812 deg
Mean anomaly: 229.0617 deg
Mean motion: 14.11113545 rev/day
Decay rate: 2.82e-06 rev/day^2
Epoch rev: 9562
Checksum: 319
/EX
SB KEPS @ AMSAT $ORB10350.M
Orbital Elements 10350.MISC
HR AMSAT ORBITAL ELEMENTS FOR MANNED AND MISCELLANEOUS SATELLITES
FROM WA5QGD FORT WORTH,TX December 16, 2010
Send Subscribe/unsubscribe to KEPS at http://www.amsat.org/mailman/listinfo/keps
BID: ORB10350.M
TO ALL RADIO AMATEURS BT
Satellite: HUBBLE
Catalog number: 20580
Epoch time: 10349.82996429
Element set: 688
Inclination: 028.4683 deg
RA of node: 133.9318 deg
Eccentricity: 0.0003271
Arg of perigee: 330.3731 deg
Mean anomaly: 029.6707 deg
Mean motion: 15.01116541 rev/day
Decay rate: 4.77e-06 rev/day^2
Epoch rev: 93207
Checksum: 299
Satellite: ISS
Catalog number: 25544
Epoch time: 10351.08145596
Element set: 471
Inclination: 051.6476 deg
RA of node: 014.4046 deg
Eccentricity: 0.0008022
Arg of perigee: 357.9586 deg
Mean anomaly: 036.2341 deg
Mean motion: 15.73344162 rev/day
Decay rate: 1.8521e-04 rev/day^2
Epoch rev: 69224
Checksum: 285
Satellite: CO-58
Catalog number: 28895
Epoch time: 10349.67320392
Element set: 0753
Inclination: 097.9916 deg
RA of node: 227.8739 deg
Eccentricity: 0.0019010
Arg of perigee: 076.3393 deg
Mean anomaly: 283.9939 deg
Mean motion: 14.59980011 rev/day
Decay rate: 2.63e-06 rev/day^2
Epoch rev: 27346
Checksum: 354
Satellite: FALCON
Catalog number: 30776
Epoch time: 10349.52858553
Element set: 979
Inclination: 035.4340 deg
RA of node: 023.0713 deg
Eccentricity: 0.0001699
Arg of perigee: 314.7310 deg
Mean anomaly: 045.3268 deg
Mean motion: 15.04009180 rev/day
Decay rate: 9.09e-06 rev/day^2
Epoch rev: 20737
Checksum: 287
Satellite: MAST
Catalog number: 31126
Epoch time: 10349.67005652
Element set: 0037
Inclination: 097.9179 deg
RA of node: 022.0853 deg
Eccentricity: 0.0095325
Arg of perigee: 022.3006 deg
Mean anomaly: 338.2269 deg
Mean motion: 14.53654163 rev/day
Decay rate: 1.73e-06 rev/day^2
Epoch rev: 19442
Checksum: 281
Satellite: CAPE1
Catalog number: 31130
Epoch time: 10350.58524641
Element set: 56
Inclination: 097.9194 deg
RA of node: 020.0132 deg
Eccentricity: 0.0102997
Arg of perigee: 028.8372 deg
Mean anomaly: 331.8452 deg
Mean motion: 14.52266505 rev/day
Decay rate: 1.65e-06 rev/day^2
Epoch rev: 19413
Checksum: 270
Satellite: COMPASS
Catalog number: 32787
Epoch time: 10350.73953860
Element set: 856
Inclination: 097.8740 deg
RA of node: 052.7810 deg
Eccentricity: 0.0016676
Arg of perigee: 053.6231 deg
Mean anomaly: 306.6598 deg
Mean motion: 14.82079938 rev/day
Decay rate: 6.01e-06 rev/day^2
Epoch rev: 14253
Checksum: 319
Satellite: AAUSAT2
Catalog number: 32788
Epoch time: 10349.71163816
Element set: 0847
Inclination: 097.8733 deg
RA of node: 051.9410 deg
Eccentricity: 0.0016132
Arg of perigee: 057.8550 deg
Mean anomaly: 302.4195 deg
Mean motion: 14.82236929 rev/day
Decay rate: 6.00e-06 rev/day^2
Epoch rev: 14239
Checksum: 303
Satellite: DO-64
Catalog number: 32789
Epoch time: 10349.89922234
Element set: 0865
Inclination: 097.8819 deg
RA of node: 052.8282 deg
Eccentricity: 0.0016270
Arg of perigee: 056.0056 deg
Mean anomaly: 304.2674 deg
Mean motion: 14.82494479 rev/day
Decay rate: 1.268e-05 rev/day^2
Epoch rev: 14242
Checksum: 338
Satellite: CO-66
Catalog number: 32791
Epoch time: 10349.30432522
Element set: 0849
Inclination: 097.8748 deg
RA of node: 051.3562 deg
Eccentricity: 0.0016983
Arg of perigee: 057.0472 deg
Mean anomaly: 303.2340 deg
Mean motion: 14.81830225 rev/day
Decay rate: 5.09e-06 rev/day^2
Epoch rev: 14227
Checksum: 299
Satellite: RS-30
Catalog number: 32953
Epoch time: 10350.75943174
Element set: 304
Inclination: 082.5019 deg
RA of node: 276.1445 deg
Eccentricity: 0.0020158
Arg of perigee: 064.0936 deg
Mean anomaly: 296.2226 deg
Mean motion: 12.43009850 rev/day
Decay rate: 1.0e-07 rev/day^2
Epoch rev: 11642
Checksum: 266
Satellite: TACSAT-3
Catalog number: 35001
Epoch time: 10349.94007183
Element set: 0470
Inclination: 040.4548 deg
RA of node: 200.7069 deg
Eccentricity: 0.0023887
Arg of perigee: 286.8861 deg
Mean anomaly: 072.9336 deg
Mean motion: 15.44040508 rev/day
Decay rate: 6.644e-05 rev/day^2
Epoch rev: 08871
Checksum: 302
Satellite: PHARMSAT
Catalog number: 35002
Epoch time: 10349.90933454
Element set: 0426
Inclination: 040.4693 deg
RA of node: 198.4274 deg
Eccentricity: 0.0025989
Arg of perigee: 289.2288 deg
Mean anomaly: 070.5729 deg
Mean motion: 15.44322016 rev/day
Decay rate: 6.192e-05 rev/day^2
Epoch rev: 08873
Checksum: 319
Satellite: HAWKSAT1
Catalog number: 35003
Epoch time: 10350.81022139
Element set: 463
Inclination: 040.4575 deg
RA of node: 180.6745 deg
Eccentricity: 0.0024859
Arg of perigee: 318.4999 deg
Mean anomaly: 041.4021 deg
Mean motion: 15.50069056 rev/day
Decay rate: 1.6638e-04 rev/day^2
Epoch rev: 8901
Checksum: 285
Satellite: CP6
Catalog number: 35004
Epoch time: 10350.85145505
Element set: 465
Inclination: 040.4562 deg
RA of node: 177.3966 deg
Eccentricity: 0.0024310
Arg of perigee: 325.1716 deg
Mean anomaly: 034.7498 deg
Mean motion: 15.52004943 rev/day
Decay rate: 2.2595e-04 rev/day^2
Epoch rev: 8904
Checksum: 289
Satellite: AEROCUB3
Catalog number: 35005
Epoch time: 10350.82776191
Element set: 564
Inclination: 040.4589 deg
RA of node: 153.8651 deg
Eccentricity: 0.0023486
Arg of perigee: 348.1753 deg
Mean anomaly: 011.8515 deg
Mean motion: 15.85095971 rev/day
Decay rate: 4.16186e-03 rev/day^2
Epoch rev: 8930
Checksum: 317
